TIANWANG 1B (TW-1B)
1 40927U 15051C   19208.09885441  .00006409  00000-0  98134-4 0  9991
2 40927  97.1360 253.5259 0006572 230.9774 180.7205 15.54683162215982
TIANWANG 1A (TW-1A)
1 40928U 15051D   19207.85607639 +.00001877 +00000-0 +47572-4 0  9990
2 40928 097.1432 238.3151 0009482 300.5451 049.7602 15.40931332215046
LAPAN A2
1 40931U 15052B   19207.24074603 +.00000513 +00000-0 -17657-4 0  9995
2 40931 006.0028 148.9300 0013213 331.3176 028.6411 14.76608166206829
LQSAT
1 40958U 15057A   19208.41751755 -.00000021  00000-0  43433-5 0  9995
2 40958  97.8966 276.5643 0019523 115.4101 244.9130 14.73084606204502
CHUBUSAT 2
1 41338U 16012B   19207.48509552  .00000213  00000-0  98485-5 0  9991
2 41338  31.0025 264.5895 0013714 117.5382 242.6648 15.00160982188599
CHUBUSAT 3
1 41339U 16012C   19208.51463674  .00000171  00000-0  65120-5 0  9994
2 41339  31.0109 256.0903 0013451 135.3865 224.7862 15.00336046188743
OUFTI-1
1 41458U 16025C   19207.73062694 +.00001552 +00000-0 +83047-4 0  9991
2 41458 098.1021 296.5097 0165421 228.8817 129.8030 15.05861013178298
E-STAR-2
1 41459U 16025D   19208.22135639  .00000073  00000-0  84770-5 0  9999
2 41459  98.1011 296.6657 0166382 228.4660 130.2223 15.05497075178349
AAUSAT 4
1 41460U 16025E   19207.81707970 +.00000354 +00000-0 +22264-4 0  9999
2 41460 098.0952 297.5752 0156638 222.2136 136.6934 15.07392142178411
NUSAT 1
1 41557U 16033B   19207.91469086 +.00000789 +00000-0 +32253-4 0  9990
2 41557 097.4179 295.1937 0014495 156.6869 203.5031 15.27266995175921
BEESAT 4
1 41619U 16040W   19207.88116562 +.00000771 +00000-0 +35531-4 0  9994
2 41619 097.3650 269.3899 0009729 245.6106 114.4116 15.23185775159670
PRATHAM
1 41783U 16059A   19208.10493727  .00000026  00000-0  14438-4 0  9999
2 41783  98.0648 266.8338 0032195 262.9058  96.8482 14.63000995151166
ALSAT 1N
1 41789U 16059G   19208.06085756  .00000055  00000-0  19427-4 0  9994
2 41789  98.0676 268.8679 0027049 252.0663 107.7593 14.64251596151269
NAYIF 1
1 42017U 17008BX  19207.74088224 +.00000849 +00000-0 +36242-4 0  9996
2 42017 097.4009 274.4401 0007337 047.3406 312.8449 15.25593408135722
MAX VALIER SAT
1 42778U 17036P   19208.38322974  .00000546  00000-0  26846-4 0  9998
2 42778  97.3518 265.1927 0014199  89.3464 270.9399 15.22058005116121
